TimeMDT,TemperatureF,Dew PointF,Humidity,Sea Level PressureIn,VisibilityMPH,Wind Direction,Wind SpeedMPH,Gust SpeedMPH,PrecipitationIn,Events,Conditions,WindDirDegrees,DateUTC
12:53 AM,28.9,19.0,67,30.20,10.0,NE,3.5,-,N/A,,Clear,50,2013-10-05 06:53:00
1:53 AM,27.0,19.0,72,30.23,10.0,Calm,Calm,-,N/A,,Clear,0,2013-10-05 07:53:00
2:53 AM,24.1,18.0,77,30.26,10.0,ENE,6.9,-,N/A,,Clear,60,2013-10-05 08:53:00
3:53 AM,27.0,19.0,72,30.23,10.0,Variable,3.5,-,N/A,,Clear,0,2013-10-05 09:53:00
4:53 AM,27.0,17.1,66,30.25,10.0,East,4.6,-,N/A,,Clear,80,2013-10-05 10:53:00
5:53 AM,26.1,18.0,71,30.29,10.0,Calm,Calm,-,N/A,,Clear,0,2013-10-05 11:53:00
6:53 AM,24.1,18.0,77,30.32,10.0,Calm,Calm,-,N/A,,Clear,0,2013-10-05 12:53:00
7:53 AM,27.0,19.0,72,30.35,10.0,East,3.5,-,N/A,,Clear,80,2013-10-05 13:53:00
8:53 AM,33.1,21.0,61,30.36,10.0,East,5.8,-,N/A,,Clear,100,2013-10-05 14:53:00
9:53 AM,36.0,19.9,52,30.35,10.0,Calm,Calm,-,N/A,,Clear,0,2013-10-05 15:53:00
10:53 AM,42.1,19.9,41,30.32,10.0,SW,3.5,-,N/A,,Clear,230,2013-10-05 16:53:00
11:53 AM,46.0,16.0,30,30.32,10.0,West,5.8,-,N/A,,Clear,270,2013-10-05 17:53:00
12:53 PM,48.0,16.0,28,30.34,10.0,Variable,4.6,-,N/A,,Clear,0,2013-10-05 18:53:00
1:53 PM,51.1,19.0,28,30.32,10.0,West,11.5,-,N/A,,Clear,280,2013-10-05 19:53:00
2:53 PM,52.0,18.0,26,30.31,10.0,SW,9.2,-,N/A,,Clear,230,2013-10-05 20:53:00
3:53 PM,53.1,19.0,26,30.28,10.0,WSW,8.1,19.6,N/A,,Clear,240,2013-10-05 21:53:00
4:53 PM,54.0,19.9,26,30.27,10.0,WSW,10.4,-,N/A,,Clear,240,2013-10-05 22:53:00
5:53 PM,53.1,21.0,29,30.28,10.0,SSW,9.2,-,N/A,,Clear,210,2013-10-05 23:53:00
6:53 PM,48.9,21.9,35,30.33,10.0,South,4.6,-,N/A,,Clear,190,2013-10-06 00:53:00
7:53 PM,44.1,21.0,40,30.35,10.0,SE,3.5,-,N/A,,Clear,140,2013-10-06 01:53:00
8:53 PM,37.0,23.0,57,30.38,10.0,ENE,9.2,-,N/A,,Clear,60,2013-10-06 02:53:00
9:53 PM,39.0,23.0,53,30.36,10.0,Calm,Calm,-,N/A,,Clear,0,2013-10-06 03:53:00
10:53 PM,35.1,23.0,61,30.35,10.0,NE,3.5,-,N/A,,Clear,40,2013-10-06 04:53:00
11:53 PM,32.0,23.0,69,30.35,10.0,NE,6.9,-,N/A,,Clear,40,2013-10-06 05:53:00